Weather History for Oxford, NC

Change the Weather History Date:

Wednesday, March 28, 2012

  Actual Average (KTDF) Record (KTDF)
Temperature  
Mean Temperature 59 °F -  
Max Temperature 77 °F 65 °F 84 °F (2007)
Min Temperature 41 °F 38 °F 20 °F (1982)
Degree Days  
Heating Degree Days 6    
Growing Degree Days 9 (Base 50)    
Moisture  
Dew Point 44 °F    
Average Humidity 56    
Maximum Humidity 76    
Minimum Humidity 41    
Precipitation  
Precipitation 0.00 in - - ()
Sea Level Pressure  
Sea Level Pressure 30.04 in    
Wind  
Wind Speed 11 mph (SSW)    
Max Wind Speed 22 mph    
Max Gust Speed 30 mph    
Visibility 10 miles    
Events      
Averages and records for this station are not official NWS values.
T = Trace of Precipitation, MM = Missing Value Source: NWS Daily Summary

Daily Weather History Graph

Daily Weather History Graph

Search for Another Location

Airport:

Trip Planner

Search our weather history database for the weather conditions in past years. The results will help you decide how hot, cold, wet, or windy it might be!

Date:

Astronomy

Mar. 28, 2012 Rise Set
Actual Time 7:05 AM EDT 7:33 PM EDT
Civil Twilight 6:39 AM EDT 7:59 PM EDT
Nautical Twilight 6:09 AM EDT 8:29 PM EDT
Astronomical Twilight 5:38 AM EDT 9:00 PM EDT
Moon 10:29 AM EDT (3/28) 12:25 AM EDT (3/28)
Length of Visible Light 13h 19m
Length of Day
12h 27m
Waxing Crescent, 30% of the Moon is Illuminated
Mar 28
Waxing Crescent
Mar 30
First Quarter
Apr 6
Full
Apr 13
Last Quarter
Apr 21
New

Hourly Weather History & Observations

Time (EDT) Temp. Windchill Dew Point Humidity Pressure Visibility Wind Dir Wind Speed Gust Speed Precip Events Conditions
12:15 AM 44.6 °F 41.4 °F 28.4 °F 53% 30.25 in 10.0 mi South 5.8 mph - N/A   Clear
12:35 AM 44.6 °F 42.2 °F 28.4 °F 53% 30.25 in 10.0 mi South 4.6 mph - N/A   Clear
12:55 AM 42.8 °F 40.1 °F 28.4 °F 57% 30.25 in 10.0 mi South 4.6 mph - N/A   Clear
1:15 AM 42.8 °F 40.1 °F 30.2 °F 61% 30.24 in 10.0 mi South 4.6 mph - N/A   Clear
1:35 AM 41.0 °F 37.1 °F 30.2 °F 65% 30.24 in 10.0 mi South 5.8 mph - N/A   Clear
1:55 AM 41.0 °F 36.4 °F 30.2 °F 65% 30.22 in 10.0 mi South 6.9 mph - N/A   Clear
2:15 AM 42.8 °F 38.0 °F 28.4 °F 57% 30.22 in 10.0 mi South 8.1 mph - N/A   Clear
2:35 AM 42.8 °F 39.3 °F 28.4 °F 57% 30.22 in 10.0 mi South 5.8 mph - N/A   Clear
2:55 AM 42.8 °F 38.6 °F 30.2 °F 61% 30.21 in 10.0 mi South 6.9 mph - N/A   Clear
3:15 AM 42.8 °F 37.5 °F 30.2 °F 61% 30.20 in 10.0 mi South 9.2 mph - N/A   Clear
3:35 AM 42.8 °F 38.0 °F 32.0 °F 66% 30.19 in 10.0 mi South 8.1 mph - N/A   Clear
3:55 AM 42.8 °F 38.0 °F 32.0 °F 66% 30.19 in 10.0 mi SSW 8.1 mph - N/A   Clear
4:15 AM 42.8 °F 37.5 °F 32.0 °F 66% 30.18 in 10.0 mi SSW 9.2 mph - N/A   Clear
4:35 AM 42.8 °F 37.5 °F 32.0 °F 66% 30.17 in 10.0 mi SSW 9.2 mph - N/A   Clear
4:55 AM 42.8 °F 38.0 °F 33.8 °F 70% 30.16 in 10.0 mi SSW 8.1 mph - N/A   Clear
8:15 AM 46.4 °F 40.1 °F 39.2 °F 76% 30.16 in 10.0 mi SW 15.0 mph 18.4 mph N/A   Clear
8:35 AM 50.0 °F - 41.0 °F 71% 30.15 in 10.0 mi SSW 18.4 mph 25.3 mph N/A   Clear
8:55 AM 50.0 °F - 41.0 °F 71% 30.14 in 10.0 mi SW 17.3 mph 23.0 mph N/A   Clear
9:15 AM 51.8 °F - 42.8 °F 71% 30.13 in 10.0 mi SW 17.3 mph 25.3 mph N/A   Clear
9:35 AM 53.6 °F - 44.6 °F 72% 30.12 in 10.0 mi SW 20.7 mph 24.2 mph N/A   Clear
9:55 AM 55.4 °F - 44.6 °F 67% 30.11 in 10.0 mi SW 17.3 mph 27.6 mph N/A   Clear
10:15 AM 55.4 °F - 46.4 °F 72% 30.10 in 10.0 mi SW 16.1 mph 20.7 mph N/A   Clear
10:35 AM 59.0 °F - 46.4 °F 63% 30.10 in 10.0 mi SW 15.0 mph 23.0 mph N/A   Clear
10:55 AM 59.0 °F - 46.4 °F 63% 30.09 in 10.0 mi SW 13.8 mph 23.0 mph N/A   Clear
11:15 AM 62.6 °F - 50.0 °F 63% 30.08 in 10.0 mi SW 13.8 mph 18.4 mph N/A   Clear
11:35 AM 64.4 °F - 51.8 °F 64% 30.07 in 10.0 mi SW 17.3 mph 21.9 mph N/A   Clear
11:55 AM 64.4 °F - 51.8 °F 64% 30.05 in 10.0 mi SW 19.6 mph 27.6 mph N/A   Clear
12:15 PM 68.0 °F - 51.8 °F 56% 30.04 in 10.0 mi SW 21.9 mph 25.3 mph N/A   Clear
12:35 PM 68.0 °F - 51.8 °F 56% 30.02 in 10.0 mi SSW 17.3 mph 23.0 mph N/A   Clear
12:55 PM 68.0 °F - 51.8 °F 56% 30.01 in 10.0 mi SW 18.4 mph 27.6 mph N/A   Clear
1:15 PM 69.8 °F - 51.8 °F 53% 29.99 in 10.0 mi SW 20.7 mph 26.5 mph N/A   Clear
1:35 PM 71.6 °F - 51.8 °F 50% 29.97 in 10.0 mi SSW 19.6 mph 25.3 mph N/A   Clear
1:55 PM 71.6 °F - 51.8 °F 50% 29.96 in 10.0 mi SW 17.3 mph 26.5 mph N/A   Clear
2:15 PM 73.4 °F - 51.8 °F 47% 29.94 in 10.0 mi SW 16.1 mph 27.6 mph N/A   Clear
2:35 PM 73.4 °F - 51.8 °F 47% 29.92 in 10.0 mi SW 17.3 mph 26.5 mph N/A   Clear
2:55 PM 73.4 °F - 53.6 °F 50% 29.91 in 10.0 mi SW 19.6 mph 27.6 mph N/A   Clear
3:15 PM 75.2 °F - 51.8 °F 44% 29.89 in 10.0 mi SW 19.6 mph 26.5 mph N/A   Clear
3:35 PM 75.2 °F - 51.8 °F 44% 29.88 in 10.0 mi SW 18.4 mph 26.5 mph N/A   Clear
3:55 PM 77.0 °F - 51.8 °F 41% 29.88 in 10.0 mi SW 17.3 mph 24.2 mph N/A   Clear
4:15 PM 77.0 °F - 51.8 °F 41% 29.87 in 10.0 mi SW 17.3 mph 25.3 mph N/A   Clear
4:35 PM 77.0 °F - 51.8 °F 41% 29.86 in 10.0 mi SW 20.7 mph 29.9 mph N/A   Clear
4:55 PM 77.0 °F - 51.8 °F 41% 29.86 in 10.0 mi SW 18.4 mph 25.3 mph N/A   Clear
5:15 PM 77.0 °F - 51.8 °F 41% 29.85 in 10.0 mi SSW 12.7 mph 20.7 mph N/A   Clear
5:35 PM 75.2 °F - 51.8 °F 44% 29.84 in 10.0 mi SW 20.7 mph 27.6 mph N/A   Clear
5:55 PM 73.4 °F - 51.8 °F 47% 29.84 in 10.0 mi SW 19.6 mph 28.8 mph N/A   Clear
6:15 PM 73.4 °F - 51.8 °F 47% 29.82 in 10.0 mi SW 17.3 mph 29.9 mph N/A   Clear
6:35 PM 73.4 °F - 51.8 °F 47% 29.83 in 10.0 mi SW 15.0 mph 18.4 mph N/A   Clear
6:55 PM 73.4 °F - 51.8 °F 47% 29.83 in 10.0 mi SW 11.5 mph - N/A   Clear
7:15 PM 71.6 °F - 51.8 °F 50% 29.84 in 10.0 mi SW 13.8 mph - N/A   Clear
7:35 PM 71.6 °F - 51.8 °F 50% 29.84 in 10.0 mi SW 12.7 mph - N/A   Clear
7:55 PM 71.6 °F - 51.8 °F 50% 29.83 in 10.0 mi SW 13.8 mph - N/A   Clear
8:15 PM 71.6 °F - 51.8 °F 50% 29.84 in 10.0 mi SW 12.7 mph 21.9 mph N/A   Clear
8:35 PM 69.8 °F - 51.8 °F 53% 29.84 in 10.0 mi SW 15.0 mph 19.6 mph N/A   Clear
8:55 PM 69.8 °F - 51.8 °F 53% 29.84 in 10.0 mi SW 15.0 mph 21.9 mph N/A   Clear
9:15 PM 69.8 °F - 51.8 °F 53% 29.84 in 10.0 mi SW 15.0 mph 20.7 mph N/A   Clear
9:35 PM 69.8 °F - 51.8 °F 53% 29.84 in 10.0 mi SW 15.0 mph 19.6 mph N/A   Clear
9:55 PM 69.8 °F - 51.8 °F 53% 29.85 in 10.0 mi SW 13.8 mph 19.6 mph N/A   Clear
10:15 PM 68.0 °F - 53.6 °F 60% 29.85 in 10.0 mi SW 11.5 mph - N/A   Clear
10:35 PM 68.0 °F - 53.6 °F 60% 29.85 in 10.0 mi SW 10.4 mph - N/A   Clear
10:55 PM 68.0 °F - 53.6 °F 60% 29.85 in 10.0 mi NW 4.6 mph - N/A   Clear
11:15 PM 64.4 °F - 53.6 °F 68% 29.85 in 10.0 mi SW 4.6 mph - N/A   Clear
11:35 PM 64.4 °F - 53.6 °F 68% 29.84 in 10.0 mi SW 4.6 mph - N/A   Clear
11:55 PM 62.6 °F - 53.6 °F 72% 29.84 in 10.0 mi SW 6.9 mph - N/A   Clear